KC3SPD-13 Weather Reports


Display with metric or nautical units.
time (UTC)temp
F
wind
direction
speed
MPH
gust
MPH
rain 1hr
in
rain 24hr
in
rain mn
in
humidity
%
barometer
mb
20260509173503 57 343 0.0 2.0 0.00 0.09 0.07 87 961.8
20260509173004 57 44 0.0 2.0 0.00 0.09 0.07 86 961.8
20260509172503 56 26 0.0 1.0 0.00 0.09 0.07 89 961.8
20260509172004 56 17 0.0 2.0 0.00 0.09 0.07 90 961.8
20260509171504 56 25 0.0 1.0 0.00 0.09 0.07 91 961.8
20260509171003 56 292 0.0 1.0 0.00 0.09 0.07 89 962.1
20260509170004 56 281 0.0 1.0 0.00 0.09 0.07 91 962.1
20260509165504 55 298 0.0 1.0 0.00 0.09 0.07 92 962.3
20260509165004 56 352 0.0 1.0 0.00 0.09 0.07 90 962.3
20260509164504 56 5 1.0 1.0 0.00 0.09 0.07 88 962.4
20260509164004 56 294 0.0 2.0 0.00 0.09 0.07 87 962.3
20260509163504 56 278 0.0 1.0 0.00 0.09 0.07 88 962.1
20260509163004 56 353 0.0 2.0 0.00 0.09 0.07 88 962.0
20260509162504 56 298 0.0 2.0 0.00 0.09 0.07 93 962.3
20260509161504 54 273 0.0 1.0 0.00 0.09 0.07 95 962.2
20260509161004 54 277 0.0 1.0 0.00 0.09 0.07 97 962.5
20260509160504 53 45 1.0 2.0 0.00 0.09 0.07 97 962.5
20260509160004 53 346 0.0 2.0 0.00 0.09 0.07 96 962.5
20260509155504 53 9 0.0 0.0 0.00 0.09 0.07 95 962.5
20260509155004 53 12 1.0 2.0 0.01 0.09 0.07 94 962.6
20260509154504 53 23 1.0 1.0 0.01 0.09 0.07 94 962.5
20260509154004 53 297 1.0 2.0 0.01 0.09 0.07 94 962.6
20260509153504 53 303 0.0 1.0 0.01 0.09 0.07 96 962.6
20260509153004 53 359 0.0 2.0 0.01 0.09 0.07 97 962.7
20260509152504 53 32 1.0 1.0 0.00 0.09 0.07 98 962.7
20260509152003 53 288 1.0 2.0 0.02 0.09 0.08 96 962.7
20260509151504 53 314 0.0 1.0 0.02 0.09 0.08 96 962.6
20260509151004 53 288 1.0 1.0 0.02 0.09 0.08 96 962.5
20260509150504 53 355 1.0 2.0 0.02 0.09 0.08 96 962.6
20260509150004 53 295 0.0 2.0 0.03 0.09 0.08 95 962.5
20260509145504 53 14 0.0 2.0 0.03 0.09 0.08 96 962.5
20260509145004 53 318 1.0 1.0 0.02 0.09 0.08 96 962.5
20260509144504 53 333 0.0 2.0 0.02 0.09 0.08 97 962.5
20260509144003 53 358 1.0 2.0 0.03 0.09 0.08 97 962.5
20260509143504 52 319 1.0 2.0 0.03 0.09 0.08 97 962.5
20260509143003 52 354 0.0 1.0 0.03 0.09 0.08 97 962.6
20260509142504 52 23 0.0 1.0 0.03 0.09 0.07 97 962.7
20260509142004 52 9 1.0 2.0 0.02 0.07 0.06 98 962.7
20260509141504 52 247 1.0 2.0 0.02 0.07 0.06 97 962.7
20260509141003 52 298 0.0 0.0 0.03 0.07 0.06 97 962.7
20260509140004 52 176 1.0 1.0 0.04 0.06 0.05 96 962.8
20260509135504 52 246 0.0 0.0 0.04 0.06 0.05 96 962.8
20260509135004 52 246 0.0 0.0 0.04 0.06 0.06 96 962.8
20260509134504 52 246 0.0 0.0 0.04 0.06 0.05 96 962.9
20260509134004 52 246 0.0 1.0 0.05 0.05 0.05 96 963.0
20260509133004 52 305 0.0 0.0 0.04 0.05 0.04 95 962.9
20260509132004 52 305 0.0 0.0 0.04 0.04 0.04 94 962.9
20260509131504 52 304 1.0 1.0 0.04 0.04 0.04 93 962.9
20260509130504 53 305 0.0 1.0 0.02 0.02 0.02 91 962.9
20260509130004 53 311 0.0 1.0 0.02 0.02 0.02 89 962.8
20260509125503 53 47 0.0 0.0 0.02 0.02 0.02 88 962.7
20260509125003 54 42 0.0 1.0 0.02 0.02 0.02 86 962.9
20260509124504 54 49 1.0 1.0 0.01 0.01 0.01 81 962.8
20260509124004 54 36 0.0 1.0 0.00 0.00 0.00 81 962.8
20260509123504 54 23 1.0 2.0 0.00 0.00 0.00 79 962.9
20260509123004 54 257 0.0 2.0 0.00 0.00 0.00 78 962.9
20260509122504 54 307 2.0 3.0 0.00 0.00 0.00 78 962.8
20260509122004 54 260 1.0 3.0 0.00 0.00 0.00 78 962.8
20260509121503 54 305 0.0 1.0 0.00 0.00 0.00 80 962.8
20260509121003 54 264 0.0 1.0 0.00 0.00 0.00 78 962.8
20260509120504 54 298 1.0 2.0 0.00 0.00 0.00 78 962.7
20260509120004 54 263 2.0 3.0 0.00 0.00 0.00 78 962.7
20260509115505 54 351 1.0 2.0 0.00 0.00 0.00 79 962.7
20260509115004 54 279 1.0 1.0 0.00 0.00 0.00 79 962.6
20260509114503 54 270 1.0 2.0 0.00 0.00 0.00 78 962.6
20260509114004 54 38 2.0 3.0 0.00 0.00 0.00 78 962.6
20260509113503 54 39 1.0 3.0 0.00 0.00 0.00 77 962.6
20260509113004 54 289 1.0 6.0 0.00 0.00 0.00 77 962.6
20260509112504 54 240 1.0 3.0 0.00 0.00 0.00 77 962.6
20260509111504 54 1 2.0 5.0 0.00 0.00 0.00 77 962.5
20260509111004 54 245 2.0 5.0 0.00 0.00 0.00 77 962.4
20260509110503 54 272 2.0 7.0 0.00 0.00 0.00 76 962.4
20260509110004 54 267 3.0 7.0 0.00 0.00 0.00 76 962.3
20260509105504 54 304 4.0 7.0 0.00 0.00 0.00 76 962.2
20260509105004 54 301 3.0 6.0 0.00 0.00 0.00 76 962.1
20260509104504 54 307 4.0 6.0 0.00 0.00 0.00 77 962.2
20260509104004 54 297 3.0 6.0 0.00 0.00 0.00 76 962.2
20260509103504 54 312 3.0 7.0 0.00 0.00 0.00 77 962.2
20260509103004 54 300 2.0 6.0 0.00 0.00 0.00 75 962.2
20260509102504 54 352 3.0 5.0 0.00 0.00 0.00 76 962.3
20260509101504 54 335 2.0 3.0 0.00 0.00 0.00 74 962.3
20260509101004 54 273 3.0 5.0 0.00 0.00 0.00 74 962.2
20260509100504 55 325 2.0 5.0 0.00 0.00 0.00 74 962.3
20260509100005 55 313 2.0 6.0 0.00 0.00 0.00 71 962.2
20260509095504 54 264 5.0 8.0 0.00 0.00 0.00 72 962.2
20260509095004 55 309 3.0 3.0 0.00 0.00 0.00 70 962.2
20260509094003 55 268 2.0 6.0 0.00 0.00 0.00 69 962.1
20260509093004 54 262 1.0 2.0 0.00 0.00 0.00 69 962.1
20260509092503 54 315 1.0 2.0 0.00 0.00 0.00 68 962.2
20260509092004 53 295 1.0 2.0 0.00 0.00 0.00 68 962.1
20260509091504 53 279 1.0 2.0 0.00 0.00 0.00 70 962.0
20260509091004 52 308 1.0 2.0 0.00 0.00 0.00 75 962.2
20260509090004 52 19 1.0 1.0 0.00 0.00 0.00 77 962.3
20260509085503 52 54 1.0 2.0 0.00 0.00 0.00 77 962.3
20260509084504 51 299 0.0 1.0 0.00 0.00 0.00 77 962.3
20260509083504 51 49 1.0 1.0 0.00 0.00 0.00 78 962.3
20260509083004 51 49 1.0 1.0 0.00 0.00 0.00 78 962.3
20260509082004 51 323 0.0 1.0 0.00 0.00 0.00 76 962.2
20260509081504 51 284 0.0 0.0 0.00 0.00 0.00 76 962.2
20260509081004 51 266 0.0 1.0 0.00 0.00 0.00 76 962.2
20260509080504 51 221 0.0 1.0 0.00 0.00 0.00 76 962.2
20260509080004 51 26 0.0 1.0 0.00 0.00 0.00 78 962.2
20260509075504 51 60 0.0 1.0 0.00 0.00 0.00 78 962.2
20260509075004 51 242 0.0 1.0 0.00 0.00 0.00 77 962.3
20260509073504 51 279 0.0 1.0 0.00 0.00 0.00 77 962.3
20260509073004 51 49 0.0 1.0 0.00 0.00 0.00 77 962.3
20260509072503 51 311 0.0 1.0 0.00 0.00 0.00 78 962.2
20260509072004 51 342 1.0 1.0 0.00 0.00 0.00 79 962.3
20260509071504 51 214 0.0 1.0 0.00 0.00 0.00 78 962.3
20260509071004 51 284 0.0 2.0 0.00 0.00 0.00 79 962.4
20260509070504 51 270 1.0 2.0 0.00 0.00 0.00 79 962.3
20260509070004 51 267 0.0 1.0 0.00 0.00 0.00 78 962.2
20260509065004 51 295 0.0 1.0 0.00 0.00 0.00 78 962.4
20260509064504 51 267 0.0 1.0 0.00 0.00 0.00 78 962.5
20260509064004 52 269 1.0 2.0 0.00 0.00 0.00 78 962.4
20260509063504 52 288 1.0 1.0 0.00 0.00 0.00 78 962.4
20260509063004 52 282 1.0 2.0 0.00 0.00 0.00 77 962.4
20260509062503 52 37 1.0 7.0 0.00 0.00 0.00 76 962.4
20260509062004 52 299 1.0 5.0 0.00 0.00 0.00 76 962.3
20260509061504 52 32 1.0 5.0 0.00 0.00 0.00 75 962.5
20260509060504 52 300 1.0 1.0 0.00 0.00 0.00 75 962.6
20260509055504 52 289 0.0 1.0 0.00 0.00 0.00 75 962.7
20260509055003 53 281 0.0 1.0 0.00 0.00 0.00 75 962.6
20260509054504 53 335 0.0 1.0 0.00 0.00 0.00 75 962.7
20260509054004 53 295 1.0 2.0 0.00 0.00 0.00 73 962.8
20260509053504 53 301 1.0 2.0 0.00 0.00 0.00 72 962.9
20260509053004 53 231 1.0 3.0 0.00 0.00 0.00 72 962.9
20260509052504 54 263 1.0 2.0 0.00 0.00 0.00 71 962.9
20260509052004 54 2 2.0 6.0 0.00 0.00 0.00 69 962.9
20260509051504 54 52 1.0 3.0 0.00 0.00 0.00 70 962.9
20260509051004 54 300 1.0 5.0 0.00 0.00 0.00 69 962.9
20260509050504 54 43 2.0 5.0 0.00 0.00 0.00 68 962.9
20260509050003 54 44 2.0 6.0 0.00 0.00 0.00 70 963.0
20260509045503 54 19 2.0 5.0 0.00 0.00 0.00 70 963.0
20260509045004 54 25 3.0 7.0 0.00 0.00 0.00 69 963.0
20260509044504 55 15 1.0 5.0 0.00 0.00 0.00 71 963.0
20260509044004 55 22 1.0 3.0 0.00 0.00 0.00 67 962.9
20260509043504 55 358 1.0 2.0 0.00 0.00 0.00 66 962.9
20260509043004 55 45 0.0 2.0 0.00 0.00 0.00 65 962.9
20260509042504 55 31 0.0 1.0 0.00 0.00 0.00 66 962.9
20260509042004 56 309 0.0 2.0 0.00 0.00 0.00 67 962.9
20260509041504 56 354 0.0 2.0 0.00 0.00 0.00 64 962.9
20260509040504 56 29 1.0 2.0 0.00 0.00 0.00 61 962.9
20260509040004 56 50 1.0 2.0 0.00 0.00 0.00 62 963.0
20260509035504 56 79 0.0 1.0 0.00 0.00 0.00 62 963.0
20260509035003 56 45 0.0 1.0 0.00 0.00 0.00 60 963.0
20260509034504 56 304 0.0 1.0 0.00 0.00 0.00 60 963.1
20260509034004 56 313 0.0 1.0 0.00 0.00 0.00 63 963.1
20260509033504 56 37 1.0 2.0 0.00 0.00 0.00 62 963.1
20260509033004 56 271 1.0 3.0 0.00 0.00 0.00 63 963.2
20260509032504 56 318 0.0 2.0 0.00 0.00 0.00 63 963.1
20260509032004 56 298 1.0 2.0 0.00 0.00 0.00 61 963.2
20260509031503 56 57 1.0 2.0 0.00 0.00 0.00 64 963.2
20260509031004 56 245 1.0 3.0 0.00 0.00 0.00 64 963.3
20260509030504 56 247 1.0 2.0 0.00 0.00 0.00 61 963.2
20260509030004 56 32 1.0 3.0 0.00 0.00 0.00 60 963.3
20260509025503 57 297 1.0 3.0 0.00 0.00 0.00 65 963.3
20260509025003 58 247 2.0 3.0 0.00 0.00 0.00 61 963.2
20260509024004 58 358 1.0 1.0 0.00 0.00 0.00 58 963.2
20260509023504 58 261 1.0 3.0 0.00 0.00 0.00 56 963.2
20260509023004 58 47 1.0 2.0 0.00 0.00 0.00 57 963.3
20260509022504 58 43 0.0 2.0 0.00 0.00 0.00 57 963.3
20260509022004 58 261 1.0 5.0 0.00 0.00 0.00 57 963.3
20260509021504 58 288 0.0 3.0 0.00 0.00 0.00 57 963.3
20260509021003 58 70 2.0 7.0 0.00 0.00 0.00 56 963.2
20260509020504 58 355 0.0 5.0 0.00 0.00 0.00 57 963.2
20260509020004 58 41 0.0 3.0 0.00 0.00 0.00 56 963.1
20260509015504 59 29 1.0 3.0 0.00 0.00 0.00 55 963.1
20260509015004 59 42 1.0 3.0 0.00 0.00 0.00 56 963.1
20260509014504 59 42 2.0 5.0 0.00 0.00 0.00 52 963.0
20260509014003 59 61 1.0 3.0 0.00 0.00 0.00 52 963.1
20260509013504 59 17 1.0 6.0 0.00 0.00 0.00 53 963.1
20260509013004 59 346 0.0 2.0 0.00 0.00 0.00 53 963.1
20260509012504 59 57 0.0 3.0 0.00 0.00 0.00 53 963.1
20260509011504 60 33 2.0 5.0 0.00 0.00 0.00 51 963.1
20260509011004 60 315 1.0 3.0 0.00 0.00 0.00 50 963.0
20260509010504 60 15 1.0 3.0 0.00 0.00 0.00 50 962.9
20260509010003 60 332 1.0 3.0 0.00 0.00 0.00 50 962.9
20260509005504 60 48 1.0 3.0 0.00 0.00 0.00 50 962.9
20260509005004 60 47 2.0 6.0 0.00 0.00 0.00 53 962.9
20260509004503 61 347 0.0 3.0 0.00 0.00 0.00 49 963.0
20260509004004 61 339 1.0 6.0 0.00 0.00 0.00 50 962.9
20260509003003 62 338 0.0 1.0 0.00 0.00 0.00 48 963.0
20260509002004 62 312 1.0 3.0 0.00 0.00 0.00 46 963.0
20260509001003 63 251 1.0 2.0 0.00 0.00 0.00 46 962.9
20260509000504 63 26 0.0 2.0 0.00 0.00 0.00 45 962.9
20260509000004 64 325 1.0 5.0 0.00 0.00 0.00 44 962.9
20260508235504 64 239 1.0 3.0 0.00 0.00 0.00 44 962.8
20260508235004 64 301 0.0 1.0 0.00 0.00 0.00 44 962.7
20260508234504 64 17 1.0 3.0 0.00 0.00 0.00 44 962.7
20260508234004 64 268 2.0 3.0 0.00 0.00 0.00 43 962.7
20260508233504 64 21 1.0 2.0 0.00 0.00 0.00 44 962.7
20260508232504 64 255 1.0 3.0 0.00 0.00 0.00 44 962.8
20260508232004 64 266 0.0 2.0 0.00 0.00 0.00 44 962.8
20260508231504 64 285 1.0 5.0 0.00 0.00 0.00 44 962.8
20260508231004 65 266 2.0 5.0 0.00 0.00 0.00 43 962.7
20260508225504 68 284 2.0 5.0 0.00 0.00 0.00 41 962.5
20260508225003 68 299 0.0 5.0 0.00 0.00 0.00 43 962.6
20260508224504 67 293 1.0 5.0 0.00 0.00 0.00 42 962.6
20260508223503 66 278 2.0 7.0 0.00 0.00 0.00 43 962.6
20260508223004 66 5 2.0 5.0 0.00 0.00 0.00 42 962.8
20260508222504 66 294 2.0 5.0 0.00 0.00 0.00 44 962.8
20260508222004 65 323 2.0 5.0 0.00 0.00 0.00 43 962.9
20260508221504 65 305 3.0 7.0 0.00 0.00 0.00 43 962.8
20260508221004 64 291 2.0 6.0 0.00 0.00 0.00 44 962.8
20260508220504 63 298 2.0 3.0 0.00 0.00 0.00 47 962.9
20260508215504 64 299 1.0 5.0 0.00 0.00 0.00 47 962.9
20260508215003 65 283 2.0 6.0 0.00 0.00 0.00 43 963.0
20260508214004 64 280 3.0 6.0 0.00 0.00 0.00 45 962.9
20260508213503 63 297 2.0 3.0 0.00 0.00 0.00 49 963.0
20260508212504 62 294 2.0 5.0 0.00 0.00 0.00 48 963.3
20260508212004 62 311 2.0 5.0 0.00 0.00 0.00 48 963.4
20260508211004 62 295 2.0 5.0 0.00 0.00 0.00 47 963.3
20260508210504 62 278 2.0 8.0 0.00 0.00 0.00 46 963.2
20260508210004 62 298 2.0 5.0 0.00 0.00 0.00 48 963.3
20260508205504 62 289 3.0 7.0 0.00 0.00 0.00 46 963.2
20260508204503 62 287 4.0 9.0 0.00 0.00 0.00 46 963.4
20260508204004 62 276 2.0 6.0 0.00 0.00 0.00 48 963.5
20260508203004 62 268 3.0 7.0 0.00 0.00 0.00 48 963.4
20260508202504 61 304 2.0 7.0 0.00 0.00 0.00 48 963.5
20260508202004 61 262 3.0 8.0 0.00 0.00 0.00 48 963.5
20260508201504 60 305 4.0 8.0 0.00 0.00 0.00 48 963.8
20260508201004 60 297 3.0 6.0 0.00 0.00 0.00 48 963.7
20260508200503 60 292 4.0 7.0 0.00 0.00 0.00 48 963.7
20260508200004 60 273 3.0 9.0 0.00 0.00 0.00 47 963.8
20260508195504 60 291 5.0 9.0 0.00 0.00 0.00 48 964.0
20260508195004 60 295 4.0 9.0 0.00 0.00 0.00 47 963.9
20260508194504 60 322 3.0 9.0 0.00 0.00 0.00 47 963.9
20260508194003 60 302 3.0 6.0 0.00 0.00 0.00 48 964.0
20260508193503 60 300 3.0 8.0 0.00 0.00 0.00 46 964.1
20260508192504 60 299 4.0 9.0 0.00 0.00 0.00 47 964.1
20260508192004 60 278 3.0 7.0 0.00 0.00 0.00 47 964.2
20260508191504 61 272 2.0 8.0 0.00 0.00 0.00 47 964.2
20260508191004 61 278 4.0 7.0 0.00 0.00 0.00 45 964.1
20260508190504 61 277 2.0 7.0 0.00 0.00 0.00 46 964.2
20260508190004 61 265 3.0 7.0 0.00 0.00 0.00 46 964.2
20260508185504 61 325 3.0 9.0 0.00 0.00 0.00 45 964.1
20260508185004 61 276 3.0 6.0 0.00 0.00 0.00 45 964.2
20260508184004 61 293 2.0 7.0 0.00 0.00 0.00 45 964.1
20260508183505 61 261 3.0 8.0 0.00 0.00 0.00 44 964.2
20260508183004 61 289 5.0 8.0 0.00 0.00 0.00 44 964.3
20260508182503 62 296 4.0 10.0 0.00 0.00 0.00 44 964.2
20260508182003 61 287 3.0 6.0 0.00 0.00 0.00 44 964.2
20260508181004 61 285 4.0 10.0 0.00 0.00 0.00 43 964.4
20260508180504 61 264 3.0 14.0 0.00 0.00 0.00 43 964.5
20260508180004 61 329 5.0 10.0 0.00 0.00 0.00 43 964.6
20260508175504 61 244 2.0 10.0 0.00 0.00 0.00 44 964.5
20260508175004 61 249 3.0 9.0 0.00 0.00 0.00 42 964.5
20260508174504 61 317 3.0 7.0 0.00 0.00 0.00 43 964.5